Content
SEND FEEDBACK

Daily
Averages
Monthly
Summary
Greece

ATHENS, GREECE


Home > Europe > Greece
Elevation: 69 feet     Latitude: 37 54N     Longitude: 023 44E

WEATHER
 
SELECT A DAY
Number of Records: 84,223;   Date Range: 4/14/01 - 12/18/14
 
SHARE

PRINT THIS DATA

[ ← Previous Day ]
WEATHER ALMANAC - MARCH 16, 2013
[ Next Day → ]
[ °C ]   °F
Weather ElementAverageHighLow
Temperature49.3 °F55.4 °F (1:20 pm)41 °F (11:50 pm)
Dewpoint35.4 °F39.2 °F (3:50 pm)32 °F (11:20 am)
Humidity59.5 %76 % (11:50 pm)44 % (11:20 am)
Barometer29.81 in30.01 in (9:50 pm)29.62 in (12:50 am)
Wind Speed7.1 mph17.3 mph (3:20 pm)
Weather ElementAverage
Visibility6.2 mi
Wind DirectionSSE (161.3 °)

Weather ElementTotal
Precipitation---
Heating Degree Days16.8 (Base 65)
Averaged from 47 records on March 16, 2013
WEATHER CONDITIONS BREAKOUT
WIND DIRECTION BREAKOUT
WEATHER BY HOUR - MARCH 16, 2013
[ °C ]   °F
Local TimeTemperatureDewpointHumidityBarometerVisibilityWind DirectionWind SpeedGust SpeedPrecipitationEventsConditions
12:50 AM50.0 °F33.8 °F54 %29.62 in6.2 miWSW (250°)11.5 mphScattered Clouds
1:20 AM48.2 °F35.6 °F62 %29.62 in6.2 miSW (220°)5.8 mphScattered Clouds
1:50 AM48.2 °F35.6 °F62 %29.62 in6.2 miWSW (250°)9.2 mphScattered Clouds
2:20 AM48.2 °F35.6 °F62 %29.62 in6.2 miWest (260°)5.8 mphScattered Clouds
2:50 AM48.2 °F35.6 °F62 %29.62 in6.2 miWest (260°)5.8 mphScattered Clouds
3:20 AM46.4 °F33.8 °F62 %29.62 in6.2 miWest (270°)5.8 mphScattered Clouds
3:50 AM46.4 °F35.6 °F66 %29.62 in6.2 miWSW (250°)6.9 mphScattered Clouds
4:20 AM44.6 °F33.8 °F66 %29.62 in6.2 miNNE (30°)5.8 mphScattered Clouds
4:50 AM44.6 °F35.6 °F71 %29.65 in6.2 miVariable1.2 mphScattered Clouds
5:20 AM46.4 °F35.6 °F66 %29.65 in6.2 miWNW (290°)5.8 mphScattered Clouds
5:50 AM46.4 °F37.4 °F71 %29.68 in6.2 miWNW (290°)5.8 mphScattered Clouds
6:20 AM46.4 °F37.4 °F71 %29.68 in6.2 miNW (320°)9.2 mphScattered Clouds
6:50 AM46.4 °F37.4 °F71 %29.68 in6.2 miNorth (350°)4.6 mphScattered Clouds
7:20 AM48.2 °F35.6 °F62 %29.71 in6.2 miVariable1.2 mphScattered Clouds
7:50 AM50.0 °F35.6 °F58 %29.71 in6.2 miNE (50°)4.6 mphPartly Cloudy
8:20 AM50.0 °F35.6 °F58 %29.74 in6.2 miVariable1.2 mphPartly Cloudy
8:50 AM51.8 °F35.6 °F54 %29.74 in6.2 miWNW (300°)5.8 mphPartly Cloudy
9:20 AM51.8 °F35.6 °F54 %29.77 in6.2 miNNW (340°)8.1 mphPartly Cloudy
9:50 AM53.6 °F35.6 °F51 %29.77 in6.2 miWNW (300°)6.9 mphScattered Clouds
10:20 AM53.6 °F35.6 °F51 %29.80 in6.2 miWNW (290°)4.6 mphScattered Clouds
10:50 AM53.6 °F33.8 °F47 %29.80 in6.2 miNW (310°)10.4 mphMostly Cloudy
11:20 AM53.6 °F32.0 °F44 %29.80 in6.2 miWNW (300°)10.4 mphMostly Cloudy
11:50 AM53.6 °F32.0 °F44 %29.80 in6.2 miWNW (300°)5.8 mphMostly Cloudy
12:20 PM53.6 °F33.8 °F47 %29.83 in6.2 miWest (260°)8.1 mphMostly Cloudy
12:50 PM53.6 °F35.6 °F51 %29.83 in6.2 miWNW (290°)8.1 mphMostly Cloudy
1:20 PM55.4 °F33.8 °F44 %29.83 in6.2 miNW (320°)10.4 mphMostly Cloudy
1:50 PM55.4 °F35.6 °F47 %29.83 in6.2 miNW (310°)8.1 mphMostly Cloudy
2:20 PM53.6 °F37.4 °F54 %29.83 in6.2 miNW (320°)12.7 mphMostly Cloudy
2:50 PM51.8 °F35.6 °F54 %29.86 in6.2 miNNW (340°)10.4 mphMostly Cloudy
3:20 PM50.0 °F37.4 °F62 %29.86 in6.2 miNorth (10°)17.3 mphMostly Cloudy
3:50 PM51.8 °F39.2 °F62 %29.86 in6.2 miNNE (20°)8.1 mphMostly Cloudy
4:20 PM51.8 °F39.2 °F62 %29.89 in6.2 miNE (50°)12.7 mphMostly Cloudy
4:50 PM51.8 °F39.2 °F62 %29.89 in6.2 miNE (50°)11.5 mphScattered Clouds
5:20 PM50.0 °F37.4 °F62 %29.89 in6.2 miNE (50°)11.5 mphMostly Cloudy
5:50 PM50.0 °F35.6 °F58 %29.89 in6.2 miNE (50°)10.4 mphMostly Cloudy
6:20 PM50.0 °F35.6 °F58 %29.92 in6.2 miNNE (30°)4.6 mphScattered Clouds
6:50 PM48.2 °F35.6 °F62 %29.92 in6.2 miNNE (30°)6.9 mphScattered Clouds
7:20 PM48.2 °F35.6 °F62 %29.92 in6.2 miNNE (30°)6.9 mphScattered Clouds
7:50 PM48.2 °F35.6 °F62 %29.95 in6.2 miNNE (20°)6.9 mphScattered Clouds
8:20 PM48.2 °F35.6 °F62 %29.95 in6.2 miNNE (20°)4.6 mphScattered Clouds
8:50 PM48.2 °F33.8 °F58 %29.98 in6.2 miNNE (20°)6.9 mphScattered Clouds
9:20 PM48.2 °F33.8 °F58 %29.98 in6.2 miNNE (20°)5.8 mphScattered Clouds
9:50 PM46.4 °F33.8 °F62 %30.01 in6.2 miNNE (20°)3.5 mphScattered Clouds
10:20 PM46.4 °F33.8 °F62 %30.01 in6.2 miVariable2.3 mphScattered Clouds
10:50 PM42.8 °F33.8 °F70 %30.01 in6.2 miENE (70°)4.6 mphScattered Clouds
11:20 PM44.6 °F35.6 °F71 %30.01 in6.2 miNorth (10°)3.5 mphScattered Clouds
11:50 PM41.0 °F33.8 °F76 %30.01 in6.2 miNorth (10°)4.6 mphScattered Clouds
Hourly data recorded from LGAV, located miles away from Athens, Greece







STORIES FROM OUR PARTNERS